[ hide orbit diagram ]
For accurate long-term ephemerides, please instead use our Horizons system.This orbit viewer was implemented using two-body methods, and hence should not be used for determining accurate long-term trajectories (over several years or decades) or planetary encounter circumstances.
Orbital Elements at Epoch 2459000.5 (2020-May-31.0) TDB
Reference: JPL 25 (heliocentric ecliptic J2000)
Element | Value | Uncertainty (1-sigma) | Units |
e | .201910135014095 | 4.305e-08 | |
a | 2.714486210768492 | 3.3228e-08 | au |
q | 2.166403933458327 | 1.184e-07 | au |
i | 15.69997216189164 | 4.4577e-06 | deg |
node | 128.8467378980322 | 1.9047e-05 | deg |
peri | 204.5340693385973 | 2.2658e-05 | deg |
M | 242.0272533185457 | 1.4464e-05 | deg |
tp | 2459535.814585741126 (2021-Nov-17.31458574) | 6.9332e-05 | TDB |
period | 1633.54042596942 4.47 | 2.9994e-05 8.212e-08 | d yr |
n | .2203802209463895 | 4.0465e-09 | deg/d |
Q | 3.262568488078658 | 3.9937e-08 | au |
|
| | Orbit Determination Parameters
Additional Information
|
[ show covariance matrix ]
Physical Parameter Table
Parameter |
Symbol |
Value |
Units |
Sigma |
Reference |
Notes |
absolute magnitude |
H |
15.6 |
|
n/a |
MPO434367 |
|
|
382092 (2011 GL5) Discovered 2007-Apr-17 by CSS at Catalina |
Reference: | Last Updated: 2013-12-19 |
|
[ show close-approach data ]
|